Location: Unspecified
(0.0000°N, 0.0000°E)
Time: 20:56:11
(UTC+02:00)

Altair - All Passes

Search period start: 30 August 2016 00:00
Search period end: 09 September 2016 00:00
Orbit: 1502 x 1682 km, 47.2° (Epoch: 29 August)

Date Brightness Start Highest point End Pass type
(mag) Time Alt. Az. Time Alt. Az. Time Alt. Az.
30 Aug - 07:51:43 10° SSE 07:54:50 12° SE 07:57:56 10° ESE daylight
30 Aug - 09:50:14 10° SSW 10:00:18 65° SE 10:10:10 10° NE daylight
30 Aug - 11:56:53 10° WSW 12:05:02 28° NW 12:13:03 10° N daylight
30 Aug - 20:37:50 10° N 20:45:00 25° NE 20:52:10 10° E visible
30 Aug - 22:40:29 10° NW 22:49:30 64° SW 22:58:46 10° SSE visible
31 Aug - 00:53:58 10° SW 00:54:48 10° SW 00:55:40 10° SW visible
31 Aug - 09:25:09 10° SSW 09:35:07 58° SE 09:44:54 10° NE daylight
31 Aug - 11:31:14 10° WSW 11:39:49 32° NW 11:48:15 10° N daylight
31 Aug - 20:13:08 10° N 20:19:49 22° NE 20:26:30 10° E visible
31 Aug - 22:15:17 10° NW 22:24:23 72° SW 22:33:42 10° SSE visible
01 Sep - 00:26:17 10° WSW 00:29:31 12° SW 00:32:48 10° SSW visible
01 Sep - 09:00:07 10° SSW 09:09:55 52° SE 09:19:35 10° NE daylight
01 Sep - 11:05:41 10° WSW 11:14:37 35° NW 11:23:25 10° NNE daylight
01 Sep - 19:48:31 10° N 19:54:37 19° NE 20:00:42 10° E daylight
01 Sep - 21:50:07 10° NW 21:59:15 80° SW 22:08:36 10° SE visible
01 Sep - 23:59:50 10° WSW 00:04:15 14° SW 00:08:45 10° SSW visible
02 Sep - 08:35:07 10° SSW 08:44:43 47° SE 08:54:13 10° ENE daylight
02 Sep - 10:40:11 10° WSW 10:49:25 40° NW 10:58:30 10° NNE daylight
02 Sep - 19:24:00 10° N 19:29:25 17° NE 19:34:48 10° E daylight
02 Sep - 21:24:58 10° NW 21:34:08 89° SW 21:43:28 10° SE visible
02 Sep - 23:33:43 10° W 23:39:00 16° SW 23:44:23 10° S visible
03 Sep - 08:10:08 10° SSW 08:19:31 42° SE 08:28:48 10° ENE daylight
03 Sep - 10:14:43 10° WSW 10:24:12 45° NW 10:33:34 10° NNE daylight
03 Sep - 18:59:39 10° NNE 19:04:11 14° NE 19:08:42 10° ENE daylight
03 Sep - 20:59:51 10° NW 21:09:02 83° NE 21:18:18 10° SE visible
03 Sep - 23:07:48 10° W 23:13:47 19° SW 23:19:51 10° S visible
04 Sep - 07:45:12 10° SSW 07:54:19 37° SE 08:03:20 10° ENE daylight
04 Sep - 09:49:19 10° WSW 09:59:01 50° NW 10:08:36 10° NNE daylight
04 Sep - 18:35:34 10° NNE 18:38:56 12° NE 18:42:17 10° ENE daylight
04 Sep - 20:34:46 10° NNW 20:43:54 74° NE 20:53:07 10° SE visible
04 Sep - 22:42:01 10° W 22:48:33 22° SW 22:55:14 10° S visible
05 Sep - 07:20:18 10° SSW 07:29:06 33° SE 07:37:50 10° ENE visible
05 Sep - 09:23:57 10° SW 09:33:50 56° NW 09:43:35 10° NNE daylight
05 Sep - 18:12:28 10° NE 18:13:41 10° NE 18:14:52 10° NE daylight
05 Sep - 20:09:42 10° NNW 20:18:48 66° NE 20:27:54 10° SE visible
05 Sep - 22:16:21 10° W 22:23:22 25° SW 22:30:31 10° S visible
06 Sep - 06:55:26 10° S 07:03:51 30° SE 07:12:15 10° ENE visible
06 Sep - 08:58:39 10° SW 09:08:38 63° NW 09:18:33 10° NNE daylight
06 Sep - 11:12:07 10° NW 11:14:03 11° NW 11:15:59 10° NNW daylight
06 Sep - 19:44:41 10° NNW 19:53:40 59° NE 20:02:39 10° SE daylight
06 Sep - 21:50:45 10° WNW 21:58:10 28° SW 22:05:44 10° S visible
07 Sep - 06:30:38 10° S 06:38:37 26° SE 06:46:35 10° E visible
07 Sep - 08:33:22 10° SW 08:43:27 70° NW 08:53:28 10° NNE daylight
07 Sep - 10:44:49 10° WNW 10:48:44 13° NW 10:52:38 10° NNW daylight
07 Sep - 19:19:40 10° NNW 19:28:32 52° NE 19:37:22 10° SE daylight
07 Sep - 21:25:13 10° WNW 21:33:00 31° SW 21:40:56 10° S visible
08 Sep - 06:05:54 10° S 06:13:23 23° SE 06:20:52 10° E visible
08 Sep - 08:08:07 10° SW 08:18:16 77° NW 08:28:22 10° NE daylight
08 Sep - 10:18:19 10° WNW 10:23:25 15° NW 10:28:32 10° NNW daylight
08 Sep - 18:54:42 10° NNW 19:03:24 46° NE 19:12:03 10° ESE daylight
08 Sep - 20:59:45 10° WNW 21:07:51 36° SW 21:16:04 10° SSE visible
